#timestamp,LO_Frequency,Hit,StdDev 
1550775615.1,286047000.5,N
1550775635.9,286047003.5,N
1550775655.7,286047002.0,N
1550775675.5,286047004.8,N
1550775695.4,286047003.0,N
1550775715.2,286047004.6,N
1550775735.1,286047007.7,N
1550775736.0,286047007.7,N
1550775755.8,286047005.7,N
1550775775.6,286047003.4,N
1550775795.5,286047005.2,N
1550775815.3,286047004.2,N
1550775835.2,286047000.8,N
1550775855.9,286046993.3,N
1550775875.7,286046996.0,N
1550775895.6,286047000.9,N
1550775915.4,286047003.2,N
1550775935.3,286047003.8,N
1550775955.1,286046996.8,N
1550775956.0,286046996.8,N
1550775975.8,286047001.6,N
1550775995.7,286047000.3,N
1550776015.5,286047005.3,N
1550776035.3,286047007.2,N
1550776055.2,286046996.8,N
1550776075.0,286046996.7,N
1550776075.9,286046996.7,N
1550776095.8,286046997.3,N
1550776115.6,286047001.6,N
1550776135.4,286046998.6,N
1550776155.3,286046998.6,N
1550776175.1,286046995.4,N
1550776195.9,286046995.0,N
1550776215.7,286046996.9,N
1550776235.5,286046995.8,N
1550776255.4,286046996.6,N
1550776275.2,286046998.5,N
1550776295.0,286047004.1,N
1550776295.9,286047004.1,N
1550776315.8,286046998.8,N
1550776335.6,286047003.4,N
1550776355.5,286047005.6,N
1550776375.3,286046998.4,N
1550776395.1,286046995.8,N
1550776415.9,286046992.5,N
1550776435.7,286046995.5,N
1550776455.6,286046996.6,N
1550776475.4,286046997.7,N
1550776495.2,286046993.8,N
1550776515.1,286046996.4,N
1550776516.0,286046996.4,N
1550776535.8,286046993.0,N
1550776555.6,286046991.8,N
1550776575.5,286046991.9,N
1550776595.3,286046993.7,N
1550776615.2,286046993.1,N
1550776635.9,286046992.5,N
1550776655.7,286046991.8,N
1550776675.6,286046993.9,N
1550776695.4,286046991.8,N
1550776715.3,286046990.5,N
1550776735.1,286046992.0,N
1550776736.0,286046992.0,N
1550776755.8,286046995.7,N
1550776775.7,286046992.4,N
1550776795.5,286046992.2,N
1550776815.3,286046990.7,N
1550776835.2,286046991.6,N
1550776855.0,286046992.5,N
1550776855.9,286046992.5,N
1550776875.8,286046990.5,N
1550776895.6,286046996.2,N
1550776915.4,286046996.1,N
1550776935.3,286046996.3,N
1550776955.1,286046992.7,Y
1550776975.9,286046996.3,P
1550776995.7,286046993.3,P
1550777015.5,286046994.4,P
1550777035.4,286046992.8,Y
1550777055.2,286046998.4,P
1550777075.1,286046997.7,N
1550777076.0,286046997.7,N
1550777095.8,286047003.3,N
1550777115.6,286047012.1,Y
1550777135.5,286047010.5,P
1550777155.3,286047010.7,N
1550777175.2,286047006.7,N
1550777195.9,286047006.4,N
1550777215.7,286047006.9,N
1550777235.6,286047007.6,N
1550777255.4,286047007.5,N
1550777275.2,286047006.7,N
1550777295.1,286047006.9,N
1550777296.0,286047006.9,N
1550777315.8,286047006.9,N
1550777335.7,286047006.2,N
1550777355.5,286047007.9,N
1550777375.3,286047008.2,N
1550777395.2,286047009.5,Y
1550777415.0,286047002.9,P
1550777415.9,286047002.9,N
1550777435.8,286047004.2,N
1550777455.6,286046999.5,N
1550777475.4,286047002.8,N
1550777495.3,286047001.0,N
1550777515.1,286046996.6,N
1550777535.9,286047004.4,N
1550777555.7,286047008.6,Y
1550777575.5,286047002.8,P
1550777595.4,286046998.5,P
1550777615.2,286046998.1,N
1550777635.0,286046995.4,N
1550777636.0,286046995.4,N
1550777655.8,286046997.8,N
1550777675.6,286046995.3,N
1550777695.5,286046999.1,N
1550777715.3,286046997.1,N
1550777735.1,286047000.9,N
1550777755.9,286047002.7,N
1550777775.7,286047005.9,N
1550777795.6,286047003.2,N
1550777815.4,286047000.3,N
1550777835.2,286047000.3,N
1550777855.1,286047001.3,N
1550777856.0,286047001.3,N
1550777875.8,286047000.9,N
1550777895.6,286047002.8,N
1550777915.5,286046996.6,N
1550777935.3,286046997.0,N
1550777955.2,286047001.0,N
1550777975.9,286047002.6,N
1550777995.7,286047001.4,N
1550778015.6,286047001.7,N
1550778035.4,286047014.0,Y
1550778055.2,286047011.9,P
1550778075.1,286047006.8,N
1550778076.0,286047006.8,N
1550778095.8,286047003.0,N
1550778115.7,286047004.9,N
1550778135.5,286046998.3,N
1550778155.3,286046998.7,N
1550778175.2,286046998.2,N
1550778195.0,286046995.9,N
1550778195.9,286046995.9,N
1550778215.8,286047000.4,N
1550778235.6,286047003.5,N
1550778255.4,286047003.3,N
1550778275.3,286047003.9,N
1550778295.1,286047003.5,N
1550778315.9,286047005.4,N
1550778335.7,286047002.8,N
1550778355.5,286046996.9,N
1550778375.4,286046996.7,N
1550778395.2,286046995.3,N
1550778415.1,286046997.0,N
1550778416.0,286046997.0,N
1550778435.8,286046997.1,N
1550778455.7,286047005.2,N
1550778475.5,286047004.1,N
1550778495.4,286046998.1,N
1550778515.2,286047000.3,N
1550778535.0,286047007.1,N
1550778535.9,286047007.1,N
1550778555.8,286047005.6,N
1550778575.6,286047001.2,N
1550778595.4,286047002.8,N
1550778615.3,286046998.8,N
1550778635.1,286047002.7,N
1550778655.9,286046997.3,N
1550778675.7,286047011.9,Y
1550778695.6,286046995.2,P
1550778715.4,286046999.0,N
1550778735.2,286046995.6,N
1550778755.1,286046997.2,N
1550778756.0,286046997.2,N
1550778775.8,286046993.3,Y
1550778795.7,286046999.2,P
1550778815.5,286046999.6,N
1550778835.3,286047000.5,N
1550778855.2,286047001.5,N
1550778875.0,286047007.1,Y
1550778875.9,286047007.1,P
1550778895.8,286047007.9,N
1550778915.6,286047006.4,N
1550778935.4,286047005.0,N
1550778955.3,286047004.7,N
1550778975.1,286047007.3,N
1550778995.9,286047006.7,N
1550779015.7,286047005.9,N
1550779035.5,286047003.5,N
1550779055.4,286047005.2,N
1550779075.2,286047004.9,N
1550779095.1,286047003.3,N
1550779096.0,286047003.3,N
1550779115.8,286047003.6,N
1550779135.6,286047003.7,N
1550779155.5,286046998.2,N
1550779175.3,286047003.3,N
1550779195.1,286047005.4,N
